Home   Weather   Seligman   Past weeks
Flag for USA

Past Weather in Seligman, Arizona, USA — Yesterday and Last 2 Weeks

Now
36 °F

Sunny.


Feels Like: 33 °F
Forecast: 51 / 30 °F
Wind: 3 mph from Northwest

Location: Love Field

Current Time: Dec 11, 2019 at 10:33:34 am

Latest Report: Dec 11, 2019 at 9:53 am


Visibility: 10 mi

Pressure: 30.24 "Hg (24.79 "Hg at 1600m altitude)

Humidity: 73%

Dew Point: 28 °F

Location of SeligmanLocation

Past Weather in Seligman — Graph

°F

Seligman Temperature Yesterday

Maximum temperature yesterday: 53 °F (at 3:53 pm)
Minimum temperature yesterday: 28 °F (at 6:53 am)
Average temperature yesterday: 38 °F

High & Low Weather Summary for the Past Weeks

 TemperatureHumidityPressure
High55 °F (Dec 4, 1:53 pm)100% (Nov 29, 2:00 am)30.28 "Hg (Nov 29, 2:00 am)
Low20 °F (Nov 30, 6:53 am)18% (Nov 26, 3:53 pm)29.41 "Hg (Nov 29, 12:53 am)
Average39 °F77%30.00 "Hg
* Reported Nov 26 8:53 am — Dec 11 8:53 am, Seligman. Weather by CustomWeather, © 2019

Note: Actual official high and low records may vary slightly from our data, if they occured in-between our weather recording intervals... More about our weather records

Seligman Weather History for the Previous 24 Hours

Scroll right to see more
 ConditionsComfort  
Time TempWeatherWind HumidityBarometerVisibility
8:53 am
Wed, Dec 11
32 °FSunny.No wind82%30.25 "Hg10 mi
7:53 am30 °FSunny.5 mph85%30.24 "Hg10 mi
6:53 am30 °FClear.No wind82%30.22 "Hg10 mi
5:53 am30 °FClear.5 mph85%30.18 "Hg10 mi
4:53 am31 °FClear.3 mph82%30.16 "Hg10 mi
3:53 am31 °FClear.7 mph85%30.17 "Hg10 mi
2:53 am32 °FClear.7 mph85%30.20 "Hg10 mi
1:53 am32 °FClear.7 mph82%30.21 "Hg10 mi
12:53 am32 °FClear.6 mph85%30.22 "Hg10 mi
11:53 pm
Tue, Dec 10
33 °FClear.9 mph82%30.22 "Hg10 mi
10:53 pm33 °FClear.5 mph82%30.24 "Hg10 mi
9:53 pm35 °FClear.5 mph78%30.25 "Hg10 mi
8:53 pm36 °FClear.5 mph79%30.27 "Hg10 mi
7:53 pm37 °FClear.8 mph73%30.26 "Hg10 mi
6:53 pm40 °FClear.7 mph65%30.25 "Hg10 mi
5:53 pm45 °FClear.3 mph51%30.23 "Hg10 mi
4:53 pm51 °FSunny.3 mph38%30.21 "Hg10 mi
3:53 pm53 °FSunny.3 mph35%30.18 "Hg10 mi
2:53 pm52 °FSunny.3 mph34%30.17 "Hg10 mi
1:53 pm51 °FSunny.3 mph38%30.19 "Hg10 mi
12:53 pm49 °FSunny.No wind43%30.19 "Hg10 mi
11:53 am47 °FSunny.3 mph48%30.22 "Hg10 mi
10:53 am42 °FSunny.No wind65%30.27 "Hg10 mi
Weather by CustomWeather, © 2019

See weather overview

Advertising